FW1364 Weather Reports


Display with metric or nautical units.
time (UTC)temp
F
wind
direction
speed
MPH
gust
MPH
rain 1hr
in
rain 24hr
in
rain mn
in
humidity
%
barometer
mb
20260509200025 67 190 0.0 4.0 0.00 0.26 0.26 61 1008.5
20260509194523 67 330 0.0 2.0 0.00 0.26 0.26 65 1008.5
20260509193019 65 289 0.0 1.0 0.00 0.26 0.26 72 1008.9
20260509191517 64 201 0.0 1.0 0.00 0.26 0.26 73 1009.2
20260509190016 63 257 0.0 3.0 0.00 0.26 0.26 74 1009.4
20260509184521 63 212 0.0 1.0 0.00 0.26 0.26 77 1009.6
20260509183009 61 206 0.0 2.0 0.00 0.26 0.26 79 1009.7
20260509181505 59 269 0.0 0.0 0.00 0.26 0.26 82 1009.8
20260509180004 59 225 0.0 0.0 0.00 0.26 0.26 82 1009.7
20260509174504 58 168 0.0 1.0 0.00 0.26 0.26 82 1009.8
20260509173002 59 231 0.0 3.0 0.00 0.26 0.26 85 1009.7
20260509171559 57 263 0.0 1.0 0.00 0.26 0.26 85 1009.6
20260509170107 57 254 0.0 1.0 0.00 0.26 0.26 86 1009.5
20260509164559 57 279 0.0 1.0 0.00 0.26 0.26 87 1009.3
20260509163054 56 202 0.0 0.0 0.00 0.26 0.26 90 1009.4
20260509161558 55 202 0.0 0.0 0.00 0.26 0.26 90 1009.0
20260509160052 55 204 0.0 0.0 0.01 0.26 0.26 90 1009.3
20260509154553 55 264 0.0 0.0 0.02 0.26 0.26 91 1009.2
20260509153054 54 245 0.0 3.0 0.03 0.26 0.26 91 1008.9
20260509151547 54 265 0.0 2.0 0.04 0.26 0.26 92 1009.0
20260509150049 53 188 0.0 2.0 0.04 0.25 0.25 91 1009.4
20260509144542 53 180 0.0 1.0 0.05 0.24 0.24 91 1009.5
20260509143040 53 204 0.0 0.0 0.06 0.23 0.23 91 1009.6
20260509141538 53 241 0.0 2.0 0.07 0.22 0.22 91 1009.6
20260509140037 52 125 0.0 2.0 0.08 0.21 0.21 91 1009.6
20260509134550 52 183 0.0 4.0 0.08 0.19 0.19 90 1009.8
20260509133035 52 211 0.0 0.0 0.08 0.17 0.17 90 1009.8
20260509131547 52 216 0.0 1.0 0.07 0.14 0.14 90 1010.0
20260509130038 52 157 0.0 1.0 0.07 0.13 0.13 90 1010.0
20260509124531 52 261 0.0 1.0 0.05 0.11 0.11 90 1010.0
20260509123030 52 204 0.0 0.0 0.03 0.09 0.09 90 1010.1
20260509121529 52 142 0.0 0.0 0.01 0.07 0.07 90 1010.1
20260509120028 52 207 0.0 0.0 0.00 0.06 0.06 90 1010.2
20260509114528 52 207 0.0 0.0 0.00 0.06 0.06 90 1010.1
20260509113024 52 206 0.0 0.0 0.01 0.06 0.06 90 1010.0
20260509111519 52 222 0.0 0.0 0.02 0.06 0.06 90 1010.0
20260509110014 52 222 0.0 0.0 0.02 0.06 0.06 89 1009.9
20260509104511 52 222 0.0 0.0 0.03 0.06 0.06 89 1009.9
20260509103006 52 222 0.0 0.0 0.03 0.05 0.05 89 1009.9
20260509101501 52 221 0.0 1.0 0.02 0.04 0.04 89 1010.0
20260509100058 52 232 0.0 0.0 0.03 0.04 0.04 89 1010.0
20260509094553 52 230 0.0 0.0 0.02 0.03 0.03 89 1010.1
20260509093057 51 228 0.0 0.0 0.01 0.02 0.02 90 1010.1
20260509091552 51 118 0.0 4.0 0.02 0.02 0.02 92 1010.4
20260509090047 51 213 0.0 0.0 0.01 0.01 0.01 92 1010.5
20260509084550 50 212 0.0 0.0 0.01 0.01 0.01 93 1010.6
20260509083048 50 179 0.0 0.0 0.01 0.01 0.01 93 1010.6
20260509081549 50 180 0.0 0.0 0.00 0.00 0.00 93 1010.6
20260509080044 50 180 0.0 0.0 0.00 0.00 0.00 93 1010.1
20260509074553 50 180 0.0 0.0 0.00 0.00 0.00 93 1009.9
20260509073043 50 77 0.0 0.0 0.00 0.00 0.00 93 1009.6
20260509071542 50 77 0.0 0.0 0.00 0.00 0.00 93 1009.2
20260509070042 50 66 0.0 1.0 0.00 0.00 0.00 93 1009.3
20260509064555 50 346 0.0 0.0 0.00 0.00 0.00 92 1009.5
20260509063043 50 346 0.0 0.0 0.00 0.00 0.00 92 1009.6
20260509061537 50 346 0.0 0.0 0.00 0.00 0.00 92 1009.9
20260509060033 50 346 0.0 0.0 0.00 0.00 0.00 92 1010.3
20260509054535 50 346 0.0 0.0 0.00 0.00 0.00 92 1010.6
20260509053031 50 346 0.0 0.0 0.00 0.00 0.00 92 1010.7
20260509051534 50 346 0.0 0.0 0.00 0.00 0.00 92 1010.9
20260509050033 50 346 0.0 0.0 0.00 0.00 0.00 91 1010.8
20260509044527 51 346 0.0 0.0 0.00 0.00 0.00 91 1010.8
20260509043026 51 346 0.0 0.0 0.00 0.00 0.00 91 1010.8
20260509041523 51 346 0.0 0.0 0.00 0.00 0.00 90 1011.0
20260509040021 51 346 0.0 0.0 0.00 0.00 0.00 90 1011.1
20260509034537 51 346 0.0 0.0 0.00 0.00 0.00 89 1011.5
20260509033020 52 346 0.0 0.0 0.00 0.00 0.00 89 1011.8
20260509031519 52 346 0.0 0.0 0.00 0.00 0.00 88 1012.1
20260509030022 52 346 0.0 0.0 0.00 0.00 0.00 88 1012.1
20260509024519 52 346 0.0 0.0 0.00 0.00 0.00 87 1012.3
20260509023018 52 346 0.0 0.0 0.00 0.00 0.00 86 1012.4
20260509021520 53 346 0.0 0.0 0.00 0.00 0.00 85 1012.4
20260509020018 53 346 0.0 0.0 0.00 0.00 0.00 85 1012.1
20260509014516 53 346 0.0 0.0 0.00 0.00 0.00 84 1012.0
20260509013016 53 38 0.0 0.0 0.00 0.00 0.00 83 1011.5
20260509011515 54 38 0.0 0.0 0.00 0.00 0.00 82 1011.4
20260509010017 54 38 0.0 0.0 0.00 0.00 0.00 80 1011.1
20260509004514 54 38 0.0 0.0 0.00 0.00 0.00 79 1010.9
20260509003014 55 38 0.0 0.0 0.00 0.00 0.00 77 1010.9
20260509001513 56 40 0.0 0.0 0.00 0.00 0.00 72 1011.0
20260509000012 57 40 0.0 0.0 0.00 0.00 0.00 69 1010.9
20260508234513 57 40 0.0 0.0 0.00 0.00 0.00 67 1011.0
20260508233012 58 15 0.0 0.0 0.00 0.00 0.00 66 1011.1
20260508231511 58 15 0.0 0.0 0.00 0.00 0.00 65 1011.0
20260508230011 59 15 0.0 0.0 0.00 0.00 0.00 63 1011.1
20260508224512 60 17 0.0 0.0 0.00 0.00 0.00 60 1011.1
20260508223010 61 128 0.0 0.0 0.00 0.00 0.00 56 1010.9
20260508221511 62 127 0.0 0.0 0.00 0.00 0.00 56 1010.9
20260508220008 62 127 0.0 0.0 0.00 0.00 0.00 53 1010.9
20260508214508 61 127 0.0 0.0 0.00 0.00 0.00 54 1011.1
20260508213015 61 78 0.0 0.0 0.00 0.00 0.00 55 1011.2
20260508211505 62 78 0.0 0.0 0.00 0.00 0.00 57 1011.4
20260508210005 62 5 0.0 0.0 0.00 0.00 0.00 56 1011.7
20260508204505 61 11 0.0 1.0 0.00 0.00 0.00 58 1011.8
20260508203005 59 9 0.0 0.0 0.00 0.00 0.00 59 1011.9
20260508201600 58 214 0.0 0.0 0.00 0.00 0.00 61 1012.3